User: anonymous   Login
Location: Gilevgi
(36.8751°N, 30.0581°E)
Time: 04:26:26
(UTC+00:00)
Language:

Cosmos 1867 - Orbit

View from above orbital plane
View from above orbital plane
View from above satellite
View from above satellite

Ground track
Ground track

The orbit is defined by the following mean orbital elements,

1 18187U          26044.33899928 +.00000000 +00000-0 +38012-4 0 00003
2 18187  65.0118  14.8958 0014161 276.9731  82.9743 14.31499117    04
Epoch (UTC): 13 February 2026 08:08:09
Eccentricity: 0.0014161
inclination: 65.0118°
perigee height: 777 km
apogee height: 797 km
right ascension of ascending node: 14.8958°
argument of perigee: 276.9731°
revolutions per day: 14.31499117
mean anomaly at epoch: 82.9743°

The dashed part of the orbit path shows where the satellite is in the earth's shadow,  

DLR